Location: Blanot
(47.1713°N, 4.2340°E)
Time: 10:49:17
(UTC+00:00)

Iridium 4 Rocket - Pass Details

Date: 14 July 2020
Orbit: 583 x 906 km, 86.9° (Epoch: 05 August)

Event Time Altitude Azimuth Distance (km) Brightness Sun altitude
Exits shadow 00:24:12 39° 168° (SSE) 1,253 4.1 -20.7°
Maximum altitude 00:26:21 77° 90° (E) 864 3.7 -20.7°
Drops below altitude 10° 00:31:41 10° 6° (N) 2,363 7.2 -20.5°
Sets 00:33:57 0° 5° (N) 3,248 8.3 -20.5°
